Wind_Speed
1 1 2 2 1 1 1 0 1 1 0 0 1 1 2 2 1 1 2 2 2 2 1 0 1 1 1 1 1 2 3 2 2 3 3 3 3 2 2 2 2 2 2
2 2 3 2 2 1 1 1 1 1 1 1 1 1 1 2 2 2 2 2 2 2 2 0 0 1 1 2 2 2 3 3 3 4 4 4 3 3 3 3 3 3 3
3 3 4 3 2 2 2 2 2 2 2 2 1 1 1 2 2 2 2 1 2 2 1 1 0 1 1 2 2 3 3 3 3 4 5 4 4 3 4 4 4 4 3
4 4 4 4 3 3 3 2 3 3 3 3 2 1 1 2 2 2 2 2 2 2 2 1 1 1 1 2 2 3 3 3 2 3 4 4 4 4 4 4 4 4 4
4 5 5 4 4 4 3 3 3 3 3 3 3 2 2 3 3 3 2 3 2 2 2 2 2 2 1 2 2 2 2 2 2 2 3 4 4 4 4 4 5 4 4
5 5 5 5 5 5 4 3 3 3 3 3 3 3 3 3 3 3 3 3 3 2 2 3 3 3 2 3 2 2 3 3 3 3 3 3 4 4 4 4 5 5 5
5 5 6 5 5 4 4 4 4 4 3 4 4 4 4 4 4 4 3 3 3 3 2 3 4 4 4 3 2 2 2 3 4 4 4 4 4 5 4 5 5 6 6
6 6 6 5 5 5 5 4 4 4 5 4 4 4 4 4 4 4 3 3 3 3 2 3 4 5 4 2 2 2 2 3 4 4 4 4 4 5 5 5 5 6 6
7 7 7 6 6 5 5 4 4 4 4 5 5 5 5 4 4 4 4 3 3 3 3 3 4 4 4 3 3 3 3 3 3 4 4 5 5 5 5 5 6 6 6
8 7 7 7 6 5 5 5 5 5 5 6 6 6 6 5 5 4 4 3 3 3 3 3 4 4 4 4 4 4 3 3 3 4 4 5 5 5 6 6 6 6 7
7 7 7 7 7 6 6 6 6 6 6 6 6 6 6 5 4 4 3 3 3 2 3 3 4 4 4 4 4 4 3 3 3 4 4 5 5 5 6 6 7 7 8
7 7 7 7 7 6 6 6 6 7 7 6 6 6 6 5 4 4 3 3 3 3 3 4 4 4 4 4 4 4 3 3 3 3 4 4 5 6 6 7 7 8 8
8 7 8 7 7 7 7 7 7 7 6 6 6 7 6 6 5 4 3 3 3 4 4 4 4 4 4 4 4 4 3 3 3 4 4 4 5 6 7 7 8 8 9
8 8 8 8 8 8 7 7 7 7 7 6 6 5 5 5 4 4 3 3 4 4 4 4 5 5 4 4 4 4 4 4 4 4 5 4 5 6 6 7 7 8 9
9 9 8 8 8 9 8 8 8 8 7 6 6 5 6 6 6 5 4 4 4 5 5 5 5 5 5 5 5 4 4 4 4 5 5 5 5 6 7 7 8 8 9
10 10 9 9 8 8 8 8 8 7 7 6 6 5 6 6 6 5 5 5 5 5 5 6 5 5 5 5 5 4 3 4 4 4 5 5 6 6 7 8 9 9 9
11 10 10 9 9 9 9 8 8 8 7 7 6 6 6 6 5 5 5 4 4 5 5 5 5 5 5 5 5 4 4 4 4 4 5 6 6 7 7 8 9 9 9
10 10 10 9 9 9 9 8 8 7 7 7 7 6 6 6 5 5 5 4 5 5 5 5 5 4 4 4 4 4 4 4 5 5 6 6 7 7 8 8 8 9 9
10 10 10 10 9 9 9 8 8 7 7 7 7 7 6 6 6 6 5 5 5 5 6 5 4 4 4 4 4 4 4 4 5 6 6 6 7 8 8 9 9 9 9
10 10 9 9 9 9 9 8 8 7 7 7 7 6 6 6 6 6 6 5 5 5 5 5 5 5 5 5 4 5 5 5 6 6 6 7 8 8 9 9 9 9 9
10 9 9 9 9 9 9 8 7 7 6 7 6 5 5 5 5 6 5 5 5 5 5 5 5 5 5 5 5 5 5 5 6 6 7 7 8 8 8 8 8 9 9
10 10 9 10 9 9 9 8 7 7 7 7 6 6 5 5 6 6 5 5 5 5 5 5 5 5 5 5 5 5 6 6 6 6 7 7 8 8 8 8 7 8 9
10 10 9 10 10 9 9 8 8 8 7 7 7 7 6 6 6 6 5 5 5 5 5 5 5 5 5 6 6 6 7 6 6 6 7 7 7 7 7 8 8 8 9
11 11 10 10 10 10 9 9 8 8 8 8 8 7 7 7 6 6 5 5 5 5 6 6 6 6 6 6 6 7 7 7 6 7 7 7 7 7 7 8 8 9 9
11 11 11 11 11 10 10 10 9 10 10 9 8 8 8 8 7 7 6 6 6 6 6 6 7 7 7 7 7 7 7 7 7 7 7 7 8 8 8 8 9 9 10
12 12 11 11 11 11 11 11 11 11 11 10 9 9 9 8 8 8 7 7 7 7 7 7 7 7 7 7 7 8 8 7 7 7 7 8 8 9 9 9 9 9 10
Wind_Direction
182 181 207 219 231 227 263 345 7 347 329 239 336 360 19 15 26 49 26 12 5 1 4 303 211 217 250 261 251 242 242 239 246 235 233 235 236 240 256 264 266 258 246
226 227 232 246 260 240 256 271 284 299 313 321 302 330 11 11 8 13 7 9 4 358 349 320 229 232 241 255 260 253 255 253 253 253 245 236 236 245 259 267 258 248 249
240 244 241 247 256 264 286 285 285 291 327 347 325 321 344 348 347 353 339 336 341 345 345 337 282 237 255 271 271 265 270 270 269 260 243 234 233 243 256 263 264 256 254
254 253 249 257 261 269 288 291 294 297 317 327 332 327 321 325 325 327 314 310 324 330 332 341 340 273 301 301 282 275 272 269 275 251 228 227 233 242 252 260 258 261 256
257 258 258 261 261 268 282 285 289 293 310 318 322 313 314 321 327 319 317 324 318 313 318 330 321 314 340 333 304 284 272 261 258 244 234 234 243 247 258 262 253 258 255
258 260 265 261 265 277 280 282 297 298 302 313 322 322 316 322 319 321 329 330 315 304 319 329 331 321 325 330 314 298 274 263 257 252 245 244 251 256 267 268 263 259 258
259 262 261 257 267 275 272 278 303 305 311 323 325 328 325 328 323 322 331 328 321 311 322 325 330 326 325 323 306 306 289 263 254 251 252 254 258 263 271 268 264 259 263
267 271 268 263 265 276 277 281 296 300 306 314 314 316 321 317 317 317 323 328 324 317 313 319 327 325 329 318 315 310 304 276 259 256 261 264 265 267 273 275 269 268 267
266 269 268 267 271 279 278 279 297 303 304 304 310 312 312 310 313 312 308 315 318 318 320 331 332 331 336 328 321 308 291 278 264 267 266 269 267 263 268 272 274 279 275
267 271 267 266 269 274 283 285 294 298 303 303 305 306 308 308 305 299 295 303 308 317 322 322 326 334 334 328 321 308 289 279 274 272 267 265 264 264 268 269 269 273 275
269 273 273 270 270 275 280 285 290 294 299 302 304 306 308 308 302 293 288 289 290 309 318 323 319 317 326 326 326 317 299 283 274 273 265 260 259 265 270 272 270 270 272
265 271 274 273 269 274 279 283 289 294 299 301 304 309 310 309 303 297 280 278 285 304 320 323 318 319 325 324 324 317 300 286 274 272 268 263 262 268 272 275 273 273 276
262 269 273 273 273 279 281 285 292 295 298 300 302 306 310 310 307 296 289 288 306 311 313 319 321 316 320 322 323 312 300 299 282 277 274 275 276 278 278 281 278 277 280
264 269 275 275 276 280 283 284 291 295 297 299 299 308 312 312 309 293 286 293 299 298 306 314 319 314 313 312 312 304 290 294 288 281 283 282 282 285 286 289 288 286 285
268 272 276 281 280 281 284 288 291 291 294 299 301 307 310 312 309 302 294 288 289 292 301 302 306 311 308 309 310 307 293 293 293 290 288 291 289 291 292 293 292 290 290
270 271 277 279 282 282 286 288 288 286 290 296 300 303 302 304 305 300 287 291 295 298 298 300 298 303 300 303 307 307 305 295 297 298 294 291 290 291 293 293 293 289 286
268 269 272 276 277 280 284 287 286 285 287 290 293 296 298 301 302 303 295 292 298 304 306 306 300 302 302 309 308 307 306 295 295 295 290 294 295 296 299 297 294 292 290
265 267 269 271 274 279 281 282 284 283 283 284 284 286 290 298 298 301 296 288 287 292 297 301 299 298 308 318 315 308 304 298 294 294 292 294 299 300 300 302 298 296 294
261 264 266 268 272 276 277 279 284 283 284 283 280 279 280 285 290 294 295 291 287 287 290 293 296 302 310 316 316 311 309 306 294 296 293 297 300 302 302 301 297 296 297
261 264 266 268 269 271 272 276 276 277 281 283 279 279 280 282 284 286 288 289 287 285 285 289 292 297 306 311 310 313 316 312 307 303 299 299 301 303 303 301 299 295 298
263 266 266 264 266 269 268 269 268 268 277 281 279 281 284 286 288 291 283 280 282 281 283 286 291 301 305 307 307 313 318 315 311 312 308 306 305 304 302 303 302 300 300
264 266 266 263 264 267 267 263 261 264 269 273 272 275 277 284 291 289 287 285 284 284 285 289 291 299 303 304 305 311 314 314 311 313 311 309 307 308 304 306 305 306 305
262 262 259 262 266 265 261 259 262 264 263 262 267 273 274 278 287 287 286 284 284 284 287 291 294 290 296 300 304 309 310 310 311 311 314 315 315 314 311 309 308 312 311
259 259 259 262 264 261 258 259 260 261 259 262 267 271 271 274 282 283 283 280 279 283 285 286 292 293 296 299 300 301 302 305 307 308 311 316 319 318 317 318 316 316 313
259 257 258 260 261 259 260 260 259 259 260 262 266 266 270 272 275 279 281 280 276 278 282 288 291 293 293 296 299 301 302 304 303 305 309 311 313 314 314 317 318 316 312
259 258 257 259 260 259 261 262 260 260 260 262 265 265 268 271 274 276 279 277 277 276 278 284 288 290 290 293 297 300 303 303 303 299 304 308 310 311 311 311 313 315 314
Height
5885 5885 5885 5885 5886 5886 5885 5885 5885 5885 5884 5884 5884 5884 5883 5883 5883 5882 5882 5882 5881 5881 5881 5881 5881 5881 5881 5881 5881 5881 5881 5882 5882 5882 5882 5883 5883 5884 5884 5884 5885 5885 5886
5885 5885 5885 5885 5886 5886 5885 5885 5885 5885 5885 5884 5884 5884 5883 5883 5882 5882 5882 5881 5881 5881 5881 5881 5881 5881 5881 5881 5881 5881 5881 5881 5881 5881 5881 5882 5882 5883 5884 5884 5884 5885 5885
5885 5885 5885 5885 5885 5885 5885 5885 5885 5885 5884 5884 5884 5883 5883 5883 5882 5882 5882 5881 5881 5881 5881 5881 5880 5880 5880 5880 5880 5880 5880 5880 5879 5878 5879 5881 5882 5883 5883 5884 5884 5885 5885
5884 5885 5885 5885 5885 5885 5885 5885 5885 5885 5884 5884 5883 5883 5883 5883 5882 5882 5881 5881 5881 5881 5881 5881 5880 5880 5880 5880 5880 5879 5879 5879 5878 5877 5879 5880 5881 5882 5883 5883 5884 5885 5885
5884 5884 5884 5885 5885 5885 5885 5885 5885 5884 5884 5884 5883 5883 5882 5882 5882 5882 5881 5881 5880 5880 5880 5880 5880 5880 5879 5879 5879 5879 5879 5879 5879 5878 5879 5880 5881 5882 5882 5883 5884 5884 5885
5884 5884 5884 5884 5884 5885 5885 5885 5884 5884 5884 5883 5883 5883 5882 5882 5882 5881 5881 5881 5880 5880 5880 5880 5880 5879 5879 5879 5878 5878 5878 5878 5878 5879 5879 5880 5881 5881 5882 5882 5883 5884 5884
5883 5883 5884 5884 5884 5884 5884 5884 5884 5884 5883 5883 5883 5882 5882 5882 5882 5881 5881 5880 5880 5880 5880 5879 5879 5879 5878 5878 5878 5877 5877 5877 5878 5878 5879 5880 5880 5881 5881 5882 5882 5883 5884
5883 5883 5883 5883 5883 5884 5884 5884 5883 5883 5883 5883 5883 5882 5882 5881 5881 5881 5881 5880 5880 5879 5879 5879 5879 5879 5878 5878 5877 5877 5877 5877 5877 5878 5878 5879 5880 5880 5881 5881 5882 5882 5883
5882 5882 5882 5882 5883 5883 5883 5883 5883 5883 5883 5882 5882 5882 5881 5881 5881 5880 5880 5880 5880 5879 5879 5879 5878 5878 5878 5877 5877 5876 5876 5876 5877 5877 5878 5878 5879 5879 5880 5880 5881 5881 5881
5881 5881 5881 5882 5882 5882 5882 5882 5882 5882 5882 5882 5881 5881 5881 5880 5880 5880 5880 5880 5879 5879 5879 5878 5878 5878 5877 5877 5876 5876 5876 5876 5876 5877 5877 5877 5878 5878 5879 5879 5880 5880 5880
5880 5880 5880 5881 5881 5881 5881 5881 5881 5881 5881 5881 5880 5880 5880 5879 5879 5879 5879 5879 5879 5879 5878 5878 5878 5877 5877 5876 5876 5875 5875 5875 5875 5876 5876 5876 5877 5877 5878 5878 5878 5879 5879
5879 5879 5880 5880 5880 5880 5881 5881 5881 5880 5880 5880 5879 5879 5879 5879 5879 5878 5878 5878 5878 5878 5878 5877 5877 5877 5876 5876 5875 5875 5875 5875 5875 5875 5875 5876 5876 5876 5877 5877 5877 5877 5878
5878 5878 5879 5879 5879 5879 5879 5880 5880 5879 5879 5879 5878 5878 5878 5878 5878 5878 5877 5877 5877 5877 5877 5877 5876 5876 5876 5875 5875 5874 5874 5874 5874 5874 5874 5875 5875 5875 5876 5876 5876 5876 5876
5877 5877 5877 5877 5878 5878 5878 5878 5878 5878 5878 5878 5878 5877 5877 5877 5877 5877 5877 5876 5877 5877 5877 5876 5876 5876 5875 5875 5874 5874 5874 5874 5874 5874 5874 5874 5874 5874 5874 5874 5874 5874 5875
5875 5876 5876 5876 5876 5877 5877 5877 5877 5877 5877 5877 5877 5877 5877 5876 5876 5876 5876 5876 5876 5876 5876 5875 5875 5875 5875 5874 5874 5874 5873 5873 5873 5873 5873 5873 5873 5873 5873 5873 5873 5873 5873
5874 5874 5875 5875 5875 5875 5876 5876 5876 5876 5876 5876 5876 5876 5876 5876 5875 5875 5875 5875 5875 5875 5875 5875 5874 5874 5874 5873 5873 5873 5872 5872 5872 5872 5872 5872 5872 5872 5872 5871 5871 5871 5871
5872 5873 5873 5874 5874 5874 5874 5874 5875 5875 5875 5875 5875 5875 5875 5875 5874 5874 5874 5874 5874 5874 5874 5874 5874 5873 5873 5873 5872 5872 5872 5871 5871 5871 5871 5871 5871 5871 5871 5870 5870 5870 5869
5870 5871 5872 5872 5872 5873 5873 5873 5873 5873 5874 5874 5874 5874 5874 5874 5874 5874 5874 5873 5873 5873 5873 5873 5873 5873 5872 5872 5871 5871 5871 5870 5870 5870 5870 5870 5870 5870 5869 5869 5868 5868 5867
5868 5869 5870 5870 5871 5871 5872 5872 5872 5872 5873 5873 5873 5873 5873 5873 5873 5873 5873 5872 5872 5872 5872 5872 5872 5872 5871 5871 5871 5870 5870 5869 5869 5869 5869 5869 5869 5868 5868 5867 5867 5866 5865
5867 5867 5868 5869 5869 5870 5870 5871 5871 5871 5872 5872 5872 5872 5872 5872 5872 5872 5872 5871 5871 5871 5871 5871 5871 5871 5870 5870 5870 5870 5869 5869 5868 5868 5868 5868 5867 5867 5866 5865 5864 5864 5863
5865 5866 5866 5867 5867 5868 5869 5869 5870 5870 5870 5871 5871 5871 5871 5871 5871 5871 5871 5870 5870 5870 5870 5870 5870 5870 5870 5869 5869 5869 5869 5868 5868 5867 5867 5866 5866 5865 5864 5863 5862 5862 5862
5863 5864 5864 5865 5866 5866 5867 5867 5868 5869 5869 5869 5870 5870 5870 5870 5870 5870 5870 5869 5869 5869 5869 5869 5869 5869 5869 5869 5869 5868 5868 5868 5867 5866 5866 5865 5864 5863 5862 5861 5861 5860 5860
5861 5862 5863 5863 5864 5864 5865 5866 5866 5867 5868 5868 5868 5869 5869 5869 5868 5868 5869 5868 5868 5868 5868 5868 5868 5868 5868 5868 5868 5868 5867 5867 5866 5865 5865 5864 5863 5862 5861 5860 5859 5859 5858
5859 5860 5860 5861 5862 5862 5863 5864 5865 5865 5866 5867 5867 5867 5867 5867 5867 5867 5867 5867 5867 5867 5867 5867 5867 5867 5867 5867 5867 5866 5866 5865 5865 5864 5863 5863 5862 5861 5860 5859 5858 5857 5857
5857 5858 5858 5859 5860 5860 5861 5862 5863 5864 5864 5865 5865 5865 5866 5866 5866 5866 5866 5866 5866 5866 5866 5866 5866 5866 5866 5866 5865 5865 5864 5864 5863 5863 5862 5862 5861 5860 5859 5858 5857 5856 5855
5855 5855 5856 5856 5857 5858 5859 5860 5861 5861 5862 5863 5863 5864 5864 5864 5864 5864 5864 5864 5864 5864 5864 5864 5864 5864 5864 5864 5864 5863 5863 5862 5862 5861 5861 5860 5860 5859 5858 5856 5855 5854 5853